Regional Weather Roundup
Issued by NWS

Home | Current Version | Previous Version | Graphics & Text | Print | Product List | Glossary On
Versions: 1 2 3 4 5 6 7 8 9 10 11 12 13 14 15 16 17 18 19 20 21 22 23 24 25 26 27 28 29 30 31 32 33 34 35 36 37 38 39 40 41 42 43 44 45 46 47 48 49 50
383
ASUS44 KMEG 232010
RWRTN
TENNESSEE HOURLY STATE WEATHER ROUNDUP
NATIONAL WEATHER SERVICE MEMPHIS TN
300 PM CDT MON APR 23 2018

TNZ002-004-019-021-049-052-054-088>092-232100-
WEST TENNESSEE

CITY           SKY/WX    TMP DP  RH WIND       PRES   REMARKS
MEMPHIS INTL   RAIN      57  57 100 W7        29.88S FOG
NWS MEMPHIS      N/A     57 N/A N/A MISG        N/A
JACKSON        CLOUDY    62  58  86 W9        29.88S
DYERSBURG      LGT RAIN  59  57  94 S5        29.88F
SOMERVILLE     PTSUNNY   57  57 100 SW9       29.87F FOG
COVINGTON      PTSUNNY   59  57  94 S7        29.88S FOG
UNION CITY     CLOUDY    61  57  88 SW13      29.87F
BOLIVAR        PTSUNNY   63  54  72 SW7G13    29.87F
PARIS          CLOUDY    68  55  64 S13       29.86F
HUNTINGDON     CLOUDY    66  54  63 S8        29.86F
LEXINGTON      CLOUDY    66  52  59 SW8G15    29.87F
SELMER         CLOUDY    64  54  68 VRB7G15   29.87S
SAVANNAH       PTSUNNY   68  55  64 S7        29.87F
$$

TNZ008-025-027-028-033-062-065-066-232100-
NORTH MIDDLE TENNESSEE

CITY           SKY/WX    TMP DP  RH WIND       PRES   REMARKS
NASHVILLE      PTSUNNY   68  57  68 NW10      29.88F THUNDER
PORTLAND       CLOUDY    61  54  77 NW6       29.90F
CLARKSVILLE    PTSUNNY   63  57  81 E3        29.90F
SMYRNA         TSTM      63  57  81 E10       29.90S
COOKEVILLE     CLOUDY    61  55  82 SE8       29.94F
LIVINGSTON     MOCLDY    59  55  88 CALM      29.95F
GALLATIN       PTSUNNY   66  57  72 E9G17     29.92F
CROSSVILLE     CLOUDY    54  50  86 E9        29.98F
ROCKWOOD       CLOUDY    54  52  94 E6G13     29.98F
$$

TNZ061-075-076-078-094-096-097-232100-
SOUTH MIDDLE TENNESSEE

CITY           SKY/WX    TMP DP  RH WIND       PRES   REMARKS
LEWISBURG      MOCLDY    63  55  77 S6        29.88F
FAYETTEVILLE   MOSUNNY   61  57  88 NE5       29.88F
TULLAHOMA      PTSUNNY   59  54  82 VRB5G15   29.90R HAZE
WINCHESTER     CLOUDY    61  54  77 VRB6      29.90S HAZE
MCMINNVILLE    PTSUNNY   63  55  77 E9G16     29.91F
COLUMBIA       MOSUNNY   64  61  88 VRB3      29.87F
SHELBYVILLE    CLOUDY    61  57  88 SW12G21   29.90R FOG
$$

TNZ017-018-042-046-047-232100-
NORTHEAST TENNESSEE

CITY           SKY/WX    TMP DP  RH WIND       PRES   REMARKS
TRI CITIES     CLOUDY    61  48  62 E17G28    30.11F
ELIZABETHTON   PTSUNNY   61  48  63 E13G23    30.12S
$$

TNZ012-013-036-069-073-074-232100-
CENTRAL EAST TENNESSEE

CITY           SKY/WX    TMP DP  RH WIND       PRES   REMARKS
KNOXVILLE      RAIN      56  55  97 NE10      29.97F
OAK RIDGE      LGT RAIN  58  54  86 VRB6      30.00F
DOWNTOWN KNOXV MOSUNNY   57  55  94 CALM      29.99F FOG
GATLINBURG     CLOUDY    66  48  52 E12G21    29.96F
MORRISTOWN     PTSUNNY   61  50  67 E17G25    30.02F
JACKSBORO      CLOUDY    55  50  82 CALM      30.06F
$$

TNZ083-085-099-232100-
SOUTHEAST TENNESSEE

CITY           SKY/WX    TMP DP  RH WIND       PRES   REMARKS
CHATTANOOGA    CLOUDY    63  58  83 NW5       29.91F
DAYTON         MOCLDY    61  61 100 N3        29.95S FOG
$$

SKY/WX REPORTED AS FAIR MEANS FEW OR NO CLOUDS BELOW
12 THOUSAND FEET.





USA.gov is the U.S. government's official web portal to all federal, state and local government web resources and services.